Volver al catálogo

STARLINK-35524

ActivoComunicacionesVLEO
NORAD 65914·PAYLOAD·🇺🇸 United States

Lanzado Oct 8, 2025 desde Vandenberg Space Force Base

Loading…

Próximos Pases (próximas 24 horas)

TLE

ActualizadoSource: CelesTrak SupGP

Época: Sep 14, 2026, 22:43 UTC

1 65914C 25225E   26257.94701389 -.00008518  00000+0 -25170-3 0  2572
2 65914  53.1596   3.7215 0001338  82.7411 319.0400 15.34389019    13

Sigue STARLINK-35524 en tiempo real con AllMySat

Download on the App Store